Regional Weather Roundup
Issued by NWS

Home | Current Version | Previous Version | Text Only | Print | Product List | Glossary Off
Versions: 1 2 3 4 5 6 7 8 9 10 11 12 13 14 15 16 17 18 19 20 21 22 23 24 25 26 27 28 29 30 31 32 33 34 35 36 37 38 39 40 41 42 43 44 45 46 47 48 49 50

828
ASUS44 KLIX 210011
RWRLA
LOUISIANA WEATHER ROUNDUP
NATIONAL WEATHER SERVICE NEW ORLEANS LA
700 PM CDT MON APR 20 2015

NOTE: "FAIR" INDICATES FEW OR NO CLOUDS BELOW 12,000 FEET WITH NO
      SIGNIFICANT WEATHER AND/OR OBSTRUCTIONS TO VISIBILITY.
      SKY/WX - SKY CONDITION AND SIGNIFICANT WEATHER.
      TMP - AIR TEMPERATURE.    DP   - DEWPOINT TEMPERATURE.
      RH  - RELATIVE HUMIDITY.  PRES - PRESSURE.
      HX  - HEAT INDEX.         WCI  - WIND CHILL INDEX.

*  THESE STATIONS ARE NOT NWS OR FAA STATIONS AND ARE NOT UNDER
   NWS QUALITY CONTROL.

LAZ040-048-061>063-065-066-069-210100-
SOUTHEAST LOUISIANA

CITY           SKY/WX    TMP DP  RH WIND       PRES   REMARKS
N.O. AUDUBON     N/A     73  58  60 MISG        N/A
6HR MIN TEMP:  73; 6HR MAX TEMP:  83;

N.O. INTL ARPT CLOUDY    72  53  51 NW10      29.90R
6HR MIN TEMP:  72; 6HR MAX TEMP:  80;

N.O. LAKEFRONT CLOUDY    75  55  49 NW14      29.90R
6HR MIN TEMP:  75; 6HR MAX TEMP:  79;

SLIDELL        CLOUDY    71  57  61 NW3       29.89R
6HR MIN TEMP:  71; 6HR MAX TEMP:  80;

BATON ROUGE    CLOUDY    68  49  50 VRB3      29.91R
6HR MIN TEMP:  68; 6HR MAX TEMP:  73;

BOOTHVILLE     CLOUDY    76  63  64 W7        29.88R
6HR MIN TEMP:  76; 6HR MAX TEMP:  80;

BELLE CHASSE   CLOUDY    73  55  53 VRB6      29.89R
6HR MIN TEMP:  73; 6HR MAX TEMP:  81;

BOGALUSA*        N/A     72  51  48 NW5       29.90R
6HR MIN TEMP:  72; 6HR MAX TEMP:  78;

GALLIANO*      MOCLDY    74  57  55 N6        29.90R
6HR MIN TEMP:  74; 6HR MAX TEMP:  83;

NEW ROADS*     FAIR      68  50  51 N3        29.91S
6HR MIN TEMP:  68; 6HR MAX TEMP:  72;

GONZALES*      FAIR      69  55  60 CALM      29.90S
6HR MIN TEMP:  69; 6HR MAX TEMP:  75;

HAMMOND*       CLOUDY    70  50  49 NW7       29.92R
HOUMA*         PTCLDY    73  57  56 NW12      29.89R
PORT FOURCHON* CLEAR     77  59  53 NW8       29.91S

$$

LAZ041-044-053-054-210100-
SOUTHWEST LOUISIANA

CITY           SKY/WX    TMP DP  RH WIND       PRES   REMARKS
LAKE CHARLES   CLEAR     71  48  43 N9        29.91R
6HR MIN TEMP:  71; 6HR MAX TEMP:  76;

LAFAYETTE      MOCLDY    70  49  47 N7        29.91R
6HR MIN TEMP:  70; 6HR MAX TEMP:  75;

PATTERSON      CLOUDY    72  54  53 N7        29.92R
6HR MIN TEMP:  72; 6HR MAX TEMP:  75;

SALT POINT       N/A     71  57  61 VRB3      29.89R
6HR MIN TEMP:  71; 6HR MAX TEMP:  76;

NEW IBERIA     MOCLDY    70  50  49 N9        29.91R
6HR MIN TEMP:  70; 6HR MAX TEMP:  75;

CHENAULT AIRPK NOT AVBL

$$

LAZ027-028-210100-
CENTRAL LOUISIANA

CITY           SKY/WX    TMP DP  RH WIND       PRES   REMARKS
FORT POLK      PTCLDY    69  45  41 VRB6      29.91S
6HR MIN TEMP:  68; 6HR MAX TEMP:  72;

ALEXANDRIA INT PTCLDY    65  49  56 NW7       29.90S
6HR MIN TEMP:  65; 6HR MAX TEMP:  71;

ALEXANDRIA     PTCLDY    66  49  54 CALM      29.91S
6HR MIN TEMP:  66; 6HR MAX TEMP:  73;


$$

LAZ001-002-210100-
NORTHWEST LOUISIANA

CITY           SKY/WX    TMP DP  RH WIND       PRES   REMARKS
SHREVEPORT     CLEAR     69  37  30 NW8       29.93R
6HR MIN TEMP:  67; 6HR MAX TEMP:  72;

BARKSDALE AFB  CLEAR     68  39  34 N5        29.93R
6HR MIN TEMP:  67; 6HR MAX TEMP:  71;

DTN SHREVEPORT CLEAR     68  37  32 NW7       29.93S
6HR MIN TEMP:  65; 6HR MAX TEMP:  70;


$$

LAZ014-016-210100-
NORTHEAST LOUISIANA

CITY           SKY/WX    TMP DP  RH WIND       PRES   REMARKS
MONROE         CLEAR     68  43  40 W8        29.92R
6HR MIN TEMP:  67; 6HR MAX TEMP:  72;

TALLULAH       CLEAR     67  43  41 NW5       29.92R
6HR MIN TEMP:  67; 6HR MAX TEMP:  71;


$$




USA.gov is the U.S. government's official web portal to all federal, state and local government web resources and services.